Location: Zagreb
(45.8000°N, 16.0000°E)
Time: 19:39:22
(UTC+01:00)

DX 1 - Pass Details

Date: 07 November 2020
Orbit: 619 x 630 km, 98.5° (Epoch: 01 December)

Event Time Altitude Azimuth Distance (km) Brightness Sun altitude
Exits shadow 20:15:16 - 322° (NW) 2,058 ? -38.6°
Reaches altitude 10° 20:15:47 10° 315° (NW) 2,004 ? -38.7°
Maximum altitude 20:16:40 11° 303° (WNW) 1,965 ? -38.8°
Drops below altitude 10° 20:17:33 10° 291° (WNW) 2,002 ? -39.0°
Sets 20:21:38 0° 253° (WSW) 2,906 ? -39.7°
